This is the latest recevied weather packets stored in our database for station/object SQ3MKP-13. If no packets are shown the sender has not sent any weather packets the latest 10 day(s).
| Time | Temp. | Humidity | Pressure | Rain* | Wind** | Luminosity | Snow |
|---|---|---|---|---|---|---|---|
| 1788536576 | 25° C | 60% | 994.4 hPa | - | - | 110 W/m² | - |
| 1788536275 | 25° C | 60% | 994.5 hPa | - | - | 111 W/m² | - |
| 1788535974 | 24.44° C | 60% | 994.6 hPa | - | - | 106 W/m² | - |
| 1788535673 | 24.44° C | 60% | 994.7 hPa | - | - | 100 W/m² | - |
| 1788535372 | 23.89° C | 62% | 994.8 hPa | - | - | 145 W/m² | - |
| 1788535070 | 24.44° C | 62% | 994.7 hPa | - | - | 28 W/m² | - |
| 1788534769 | 24.44° C | 61% | 994.9 hPa | - | - | 46 W/m² | - |
| 1788534469 | 24.44° C | 61% | 994.8 hPa | - | - | 62 W/m² | - |
| 1788534167 | 24.44° C | 61% | 994.9 hPa | - | - | 40 W/m² | - |
| 1788533866 | 24.44° C | 61% | 995 hPa | - | - | 62 W/m² | - |
| 1788533565 | 24.44° C | 60% | 995 hPa | - | - | 44 W/m² | - |
| 1788533265 | 24.44° C | 61% | 995.2 hPa | - | - | 51 W/m² | - |
| 1788532963 | 24.44° C | 60% | 995.4 hPa | - | - | 70 W/m² | - |
| 1788532662 | 24.44° C | 60% | 995.5 hPa | - | - | 91 W/m² | - |
| 1788532361 | 24.44° C | 59% | 995.4 hPa | - | - | 151 W/m² | - |
| 1788532060 | 25° C | 60% | 995.6 hPa | - | - | 158 W/m² | - |
| 1788531759 | 25° C | 60% | 995.8 hPa | - | - | 193 W/m² | - |
| 1788531458 | 24.44° C | 60% | 995.7 hPa | - | - | 232 W/m² | - |
| 1788531156 | 24.44° C | 61% | 995.8 hPa | - | - | 261 W/m² | - |
| 1788530855 | 24.44° C | 62% | 996 hPa | - | - | 126 W/m² | - |
| 1788530555 | 23.89° C | 63% | 996.1 hPa | - | - | 68 W/m² | - |
| 1788530253 | 24.44° C | 62% | 996.1 hPa | - | - | 127 W/m² | - |
| 1788529952 | 24.44° C | 61% | 996.3 hPa | - | - | 150 W/m² | - |
| 1788529651 | 24.44° C | 62% | 996.3 hPa | - | - | 436 W/m² | - |
| 1788529349 | 24.44° C | 63% | 996.4 hPa | - | - | 449 W/m² | - |
* Rain since midnight (hover to see other rain measurements)
** Current wind speed in m/s (hover to see current wind gust speed)